Weather in Velikaya Topal

Russia / Bryansk Oblast     52°32′26″N   32°21′32″E
temp.,
°C
wind,
m/s
gust,
m/s
humid.,
%
clouds,
%
prec.,
mm/h
press.,
hPa
HPBL,
m
20 may, fri
fri2000:00+9wnw487242 0.0 1019119
03:00+7nw358143 0.0 101870
06:00+8nw3586100 0.0 1019117
09:00+14nw357372 0.0 1018497
12:00+13w4482100 0.0 1018448
15:00+13w3486100 0.0 1017424
18:00+12wnw1295100 0.4 1016130
21:00+11ese3698100 0.8 1014204
21 may, sat
sat2100:00+11se51197100 0.1 1011405
03:00+11sse4898100 1.8 1008403
06:00+11ese2399100 0.5 1007248
09:00+11ese4598100 1.1 1006237
12:00+12ese3498100 0.2 1006220
15:00+13ese4494100 0.3 1005276
18:00+12ese5897100 1.6 1002218
21:00+13sw3995100 4.1 1000628
22 may, sun
sun2200:00+11w111893100 0.5 998743
03:00+9w9158812 0.5 999725
06:00+8w71393100 0.1 998735
09:00+8nw61096100 1.4 998794
12:00+6n7992100 0.6 1000853
15:00+7nne71290100 0.8 10031153
18:00+11nne6107599 0.2 10051183
21:00+7n3388100 0.3 100740
23 may, mon
mon2300:00+5n348743 0.0 100946
03:00+4n348322 0.0 101064
06:00+4n348313 0.0 101187
09:00+10nnw235957 0.0 1011430
12:00+14nw354786 0.0 10102259
15:00+13nw5558100 0.5 10111383
18:00+13nnw465756 0.4 10101803
21:00+8n35755 0.4 101262
24 may, tue
tue2400:00+5nnw34760 0.0 101341
03:00+4nw34755 0.0 101463
06:00+5nnw36875 0.0 1015120
09:00+11n46649 0.0 1015482
12:00+15n34470 0.0 10151390
15:00+16nnw33465 0.0 10161559
18:00+16n34561 0.0 10161536
21:00+11wnw22710 0.0 101710